Location: Alulod
(14.2076°N, 120.8898°E)
Time: 02:17:42
(UTC+00:00)

CZ-3 R/B - Pass Details

Date: 13 December 2025
Orbit: 551 x 10005 km, 28.3° (Epoch: 14 January)

Event Time Altitude Azimuth Distance (km) Brightness Sun altitude
Exits shadow 20:54:32 21° 297° (WNW) 5,752 4.8 -18.3°
Maximum altitude 21:07:43 84° 24° (NNE) 1,664 2.6 -15.3°
Drops below altitude 10° 21:13:50 10° 113° (ESE) 2,674 5.3 -13.9°
Sets 21:15:32 0° 114° (ESE) 3,323 6.3 -13.5°
